Weather History for Ouarzazate, Morocco

Change the Weather History Date:

Tuesday, December 18, 2012

  Actual Average Record
Temperature  
Mean Temperature 52 °F -  
Max Temperature 68 °F 62 °F - ()
Min Temperature 35 °F 35 °F - ()
Degree Days  
Heating Degree Days 14    
Growing Degree Days 2 (Base 50)    
Moisture  
Dew Point 21 °F    
Average Humidity 29    
Maximum Humidity 49    
Minimum Humidity 9    
Precipitation  
Precipitation 0.00 in 0.02 in - ()
Sea Level Pressure  
Sea Level Pressure 30.30 in    
Wind  
Wind Speed 1 mph ()    
Max Wind Speed 6 mph    
Max Gust Speed -    
Visibility 12.0 miles    
Events      
T = Trace of Precipitation, MM = Missing Value Source: Averaged Metar Reports

Daily Weather History Graph

Daily Weather History Graph

Search for Another Location

Airport:

Trip Planner

Search our weather history database for the weather conditions in past years. The results will help you decide how hot, cold, wet, or windy it might be!

Date:

Astronomy

Dec. 18, 2012 Rise Set
Actual Time 7:20 AM WET 5:28 PM WET
Civil Twilight 6:53 AM WET 5:55 PM WET
Nautical Twilight 6:23 AM WET 6:25 PM WET
Astronomical Twilight 5:53 AM WET 6:55 PM WET
Moon 11:12 AM WET (12/18) 11:18 PM WET (12/18)
Length of Visible Light 11h 02m
Length of Day
10h 08m
Waxing Crescent, 32% of the Moon is Illuminated
Dec 18
Waxing Crescent
Dec 20
First Quarter
Dec 28
Full
Jan 5
Last Quarter
Jan 11
New

Hourly Weather History & Observations

Time (WET) Temp. Dew Point Humidity Pressure Visibility Wind Dir Wind Speed Gust Speed Precip Events Conditions
12:00 AM 47 °F 21 °F 23%  in 12 mi Calm Calm - -   Clear
12:00 AM 48.2 °F 21.2 °F 34% 30.33 in - Variable 2.3 mph - N/A   Clear
1:00 AM 46.4 °F 21.2 °F 37% 30.33 in - Variable 2.3 mph - N/A   Clear
2:00 AM 44.6 °F 19.4 °F 37% 30.33 in - Calm Calm - N/A   Clear
3:00 AM 42 °F 21 °F 30%  in 12 mi Calm Calm - -  
3:00 AM 41.0 °F 21.2 °F 45% 30.33 in - Variable 2.3 mph - N/A   Clear
4:00 AM 39.2 °F 21.2 °F 49% 30.30 in - Calm Calm - N/A   Clear
5:00 AM 37.4 °F 19.4 °F 48% 30.33 in - Calm Calm - N/A   Clear
6:00 AM 40 °F 20 °F 31%  in 12 mi Calm Calm - -  
6:00 AM 39.2 °F 19.4 °F 45% 30.33 in - Calm Calm - N/A   Clear
7:00 AM 35.6 °F 17.6 °F 48% 30.33 in - Variable 1.2 mph - N/A   Clear
8:00 AM 37.4 °F 17.6 °F 45% 30.33 in - Variable 1.2 mph - N/A   Clear
9:00 AM 38 °F 20 °F 35%  in 12 mi NNW 1.2 mph - -  
9:00 AM 37.4 °F 19.4 °F 48% 30.36 in - Variable 1.2 mph - N/A   Clear
10:00 AM 48.2 °F 21.2 °F 34% 30.36 in - Calm Calm - N/A   Clear
11:00 AM 53.6 °F 23.0 °F 30% 30.36 in - Calm Calm - N/A   Clear
12:00 PM 58 °F 24 °F 16%  in 12 mi Calm Calm - -  
12:00 PM 59.0 °F 24.8 °F 27% 30.36 in - Calm Calm - N/A   Clear
1:00 PM 62.6 °F 23.0 °F 22% 30.30 in - Calm Calm - N/A   Clear
2:00 PM 66.2 °F 23.0 °F 19% 30.27 in - Calm Calm - N/A   Clear
3:00 PM 67 °F 22 °F 9%  in 12 mi East 1.2 mph - -  
3:00 PM 66.2 °F 21.2 °F 18% 30.24 in - Variable 1.2 mph - N/A   Clear
4:00 PM 68.0 °F 21.2 °F 17% 30.24 in - Variable 1.2 mph - N/A   Clear
5:00 PM 68.0 °F 21.2 °F 17% 30.24 in - Variable 2.3 mph - N/A   Clear
6:00 PM 66 °F 22 °F 10%  in 12 mi ENE 1.2 mph - -  
6:00 PM 66.2 °F 23.0 °F 19% 30.24 in - Variable 1.2 mph - N/A   Clear
7:00 PM 62.6 °F 21.2 °F 20% 30.24 in - Variable 2.3 mph - N/A   Clear
8:00 PM 57.2 °F 19.4 °F 23% 30.27 in - Variable 1.2 mph - N/A   Clear
9:00 PM 57 °F 21 °F 13%  in 12 mi WSW 2.3 mph - -  
9:00 PM 57.2 °F 21.2 °F 25% 30.27 in - Variable 2.3 mph - N/A   Clear
10:00 PM 50.0 °F 19.4 °F 30% 30.27 in - West 5.8 mph - N/A   Clear
11:00 PM 50.0 °F 19.4 °F 30% 30.30 in - Variable 3.5 mph - N/A   Clear